Time,TemperatureF,DewpointF,PressureIn,WindDirection,WindDirectionDegrees,WindSpeedMPH,WindSpeedGustMPH,Humidity,HourlyPrecipIn,Conditions,Clouds,dailyrainin,SoftwareType,DateUTC
2013-04-12 00:02:00,62.5,62.2,29.51,West,261,7.0,12.0,99,0.06,,,0.00,Wunderground v.1.15,2013-04-12 04:02:00,
2013-04-12 00:07:00,62.5,62.2,29.53,SSW,211,8.0,12.0,99,0.04,,,0.00,Wunderground v.1.15,2013-04-12 04:07:00,
2013-04-12 00:12:00,62.5,62.2,29.54,WSW,249,9.0,12.0,99,0.00,,,0.00,Wunderground v.1.15,2013-04-12 04:12:00,
2013-04-12 00:17:00,62.5,62.2,29.53,WSW,245,11.0,14.0,99,0.00,,,0.00,Wunderground v.1.15,2013-04-12 04:17:00,
2013-04-12 00:22:00,62.6,62.3,29.54,WSW,248,12.0,14.0,99,0.00,,,0.00,Wunderground v.1.15,2013-04-12 04:22:00,
2013-04-12 00:27:00,62.8,62.2,29.57,West,281,12.0,15.0,98,0.00,,,0.00,Wunderground v.1.15,2013-04-12 04:27:00,
2013-04-12 00:37:00,63.0,62.4,29.58,West,269,11.0,11.0,98,0.00,,,0.00,Wunderground v.1.15,2013-04-12 04:37:00,
2013-04-12 00:42:00,63.1,62.5,29.58,West,274,8.0,12.0,98,0.00,,,0.00,Wunderground v.1.15,2013-04-12 04:42:00,
2013-04-12 00:47:00,63.3,62.4,29.58,WNW,286,8.0,8.0,97,0.00,,,0.00,Wunderground v.1.15,2013-04-12 04:47:00,
2013-04-12 00:52:00,63.4,62.2,29.58,West,273,7.0,12.0,96,0.00,,,0.00,Wunderground v.1.15,2013-04-12 04:52:00,
2013-04-12 00:57:00,63.6,62.1,29.58,West,263,8.0,12.0,95,0.00,,,0.00,Wunderground v.1.15,2013-04-12 04:57:00,
2013-04-12 01:02:00,63.9,62.1,29.59,West,280,9.0,12.0,94,0.00,,,0.00,Wunderground v.1.15,2013-04-12 05:02:00,
2013-04-12 01:12:00,64.1,62.0,29.59,West,273,9.0,10.0,93,0.00,,,0.00,Wunderground v.1.15,2013-04-12 05:12:00,
2013-04-12 01:17:00,64.3,61.9,29.59,West,261,12.0,12.0,92,0.00,,,0.00,Wunderground v.1.15,2013-04-12 05:17:00,
2013-04-12 01:22:00,64.6,61.9,29.59,WSW,248,14.0,20.0,91,0.00,,,0.00,Wunderground v.1.15,2013-04-12 05:22:00,
2013-04-12 01:27:00,64.6,61.9,29.58,West,266,14.0,14.0,91,0.00,,,0.00,Wunderground v.1.15,2013-04-12 05:27:00,
2013-04-12 01:32:00,64.7,62.0,29.58,WSW,256,14.0,14.0,91,0.00,,,0.00,Wunderground v.1.15,2013-04-12 05:32:00,
2013-04-12 01:42:00,64.7,62.0,29.58,WSW,241,13.0,14.0,91,0.00,,,0.00,Wunderground v.1.15,2013-04-12 05:42:00,
2013-04-12 01:47:00,64.7,62.0,29.58,West,271,13.0,13.0,91,0.00,,,0.00,Wunderground v.1.15,2013-04-12 05:47:00,
2013-04-12 01:52:00,64.7,62.0,29.58,WSW,252,12.0,13.0,91,0.00,,,0.00,Wunderground v.1.15,2013-04-12 05:52:00,
2013-04-12 01:57:00,64.7,62.0,29.58,West,263,12.0,15.0,91,0.00,,,0.00,Wunderground v.1.15,2013-04-12 05:57:00,
2013-04-12 02:02:00,64.7,62.0,29.58,West,270,13.0,15.0,91,0.00,,,0.00,Wunderground v.1.15,2013-04-12 06:02:00,
2013-04-12 02:07:00,64.7,62.0,29.58,West,267,12.0,12.0,91,0.00,,,0.00,Wunderground v.1.15,2013-04-12 06:07:00,
2013-04-12 02:17:00,64.6,61.9,29.58,West,274,11.0,11.0,91,0.00,,,0.00,Wunderground v.1.15,2013-04-12 06:17:00,
2013-04-12 02:22:00,64.4,62.0,29.59,WNW,289,11.0,12.0,92,3.60,,,0.05,Wunderground v.1.15,2013-04-12 06:22:00,
2013-04-12 02:27:00,63.9,62.1,29.59,West,274,10.0,10.0,94,0.63,,,0.11,Wunderground v.1.15,2013-04-12 06:27:00,
2013-04-12 02:32:00,63.7,62.2,29.59,WNW,291,9.0,12.0,95,0.20,,,0.12,Wunderground v.1.15,2013-04-12 06:32:00,
2013-04-12 02:37:00,63.5,62.0,29.59,West,274,10.0,10.0,95,0.86,,,0.16,Wunderground v.1.15,2013-04-12 06:37:00,
2013-04-12 02:42:00,63.4,62.2,29.59,WNW,284,10.0,12.0,96,0.18,,,0.18,Wunderground v.1.15,2013-04-12 06:42:00,
2013-04-12 02:47:00,63.4,62.2,29.60,WNW,295,10.0,10.0,96,0.07,,,0.18,Wunderground v.1.15,2013-04-12 06:47:00,
2013-04-12 02:52:00,63.3,62.1,29.60,NW,304,8.0,12.0,96,0.06,,,0.19,Wunderground v.1.15,2013-04-12 06:52:00,
2013-04-12 03:02:00,63.0,61.2,29.60,NW,309,6.0,12.0,94,0.05,,,0.19,Wunderground v.1.15,2013-04-12 07:02:00,
2013-04-12 03:07:00,62.8,61.0,29.60,NW,316,5.0,12.0,94,0.00,,,0.19,Wunderground v.1.15,2013-04-12 07:07:00,
2013-04-12 03:12:00,62.6,60.2,29.60,NW,319,5.0,12.0,92,0.00,,,0.19,Wunderground v.1.15,2013-04-12 07:12:00,
2013-04-12 03:17:00,62.5,60.1,29.61,NNW,330,6.0,6.0,92,0.00,,,0.19,Wunderground v.1.15,2013-04-12 07:17:00,
2013-04-12 03:22:00,62.2,59.8,29.61,NNW,342,6.0,12.0,92,0.00,,,0.19,Wunderground v.1.15,2013-04-12 07:22:00,
2013-04-12 03:32:00,61.5,58.5,29.60,North,355,8.0,12.0,90,0.00,,,0.19,Wunderground v.1.15,2013-04-12 07:32:00,
2013-04-12 03:37:00,61.2,58.2,29.61,WNW,283,8.0,8.0,90,0.00,,,0.19,Wunderground v.1.15,2013-04-12 07:37:00,
2013-04-12 03:42:00,60.9,57.9,29.62,NW,323,6.0,12.0,90,0.00,,,0.19,Wunderground v.1.15,2013-04-12 07:42:00,
2013-04-12 03:47:00,60.7,57.7,29.62,NW,316,5.0,12.0,90,0.00,,,0.19,Wunderground v.1.15,2013-04-12 07:47:00,
2013-04-12 03:52:00,60.6,57.3,29.63,NNW,341,6.0,12.0,89,0.00,,,0.19,Wunderground v.1.15,2013-04-12 07:52:00,
2013-04-12 03:57:00,60.5,57.2,29.63,North,1,7.0,12.0,89,0.00,,,0.19,Wunderground v.1.15,2013-04-12 07:57:00,
2013-04-12 04:02:00,60.3,57.4,29.63,NNW,334,8.0,12.0,90,0.00,,,0.19,Wunderground v.1.15,2013-04-12 08:02:00,
2013-04-12 04:07:00,60.2,57.3,29.63,NNW,347,7.0,12.0,90,0.00,,,0.19,Wunderground v.1.15,2013-04-12 08:07:00,
2013-04-12 04:12:00,60.0,57.1,29.63,NNW,333,7.0,12.0,90,0.00,,,0.19,Wunderground v.1.15,2013-04-12 08:12:00,
2013-04-12 04:22:00,59.6,56.7,29.64,NNW,337,5.0,12.0,90,0.00,,,0.19,Wunderground v.1.15,2013-04-12 08:22:00,
2013-04-12 04:27:00,59.4,56.2,29.64,NNW,329,5.0,12.0,89,0.00,,,0.19,Wunderground v.1.15,2013-04-12 08:27:00,
2013-04-12 04:32:00,59.2,56.0,29.65,NNE,18,7.0,12.0,89,0.00,,,0.19,Wunderground v.1.15,2013-04-12 08:32:00,
2013-04-12 04:37:00,59.0,55.4,29.65,NNE,22,8.0,8.0,88,0.00,,,0.19,Wunderground v.1.15,2013-04-12 08:37:00,
2013-04-12 04:42:00,59.0,55.1,29.66,North,9,9.0,13.0,87,0.00,,,0.19,Wunderground v.1.15,2013-04-12 08:42:00,
2013-04-12 04:47:00,58.8,55.3,29.66,NW,323,8.0,8.0,88,0.00,,,0.19,Wunderground v.1.15,2013-04-12 08:47:00,
2013-04-12 04:57:00,58.6,54.7,29.67,North,5,8.0,12.0,87,0.00,,,0.19,Wunderground v.1.15,2013-04-12 08:57:00,
2013-04-12 05:02:00,58.5,55.0,29.68,NNE,15,7.0,12.0,88,0.00,,,0.19,Wunderground v.1.15,2013-04-12 09:02:00,
2013-04-12 05:07:00,58.4,54.9,29.68,NNE,15,7.0,12.0,88,0.00,,,0.19,Wunderground v.1.15,2013-04-12 09:07:00,
2013-04-12 05:12:00,58.2,54.7,29.68,NNE,20,6.0,12.0,88,0.00,,,0.19,Wunderground v.1.15,2013-04-12 09:12:00,
2013-04-12 05:17:00,58.1,54.6,29.68,NE,53,7.0,12.0,88,0.00,,,0.19,Wunderground v.1.15,2013-04-12 09:17:00,
2013-04-12 05:27:00,57.9,53.7,29.69,NNE,19,9.0,13.0,86,0.00,,,0.19,Wunderground v.1.15,2013-04-12 09:27:00,
2013-04-12 05:32:00,57.7,53.5,29.69,North,354,8.0,13.0,86,0.00,,,0.19,Wunderground v.1.15,2013-04-12 09:32:00,
2013-04-12 05:37:00,57.5,53.3,29.69,NNE,25,8.0,12.0,86,0.00,,,0.19,Wunderground v.1.15,2013-04-12 09:37:00,
2013-04-12 05:42:00,57.4,53.2,29.69,NNE,16,9.0,12.0,86,0.00,,,0.19,Wunderground v.1.15,2013-04-12 09:42:00,
2013-04-12 05:47:00,57.3,53.1,29.70,NNE,27,9.0,9.0,86,0.00,,,0.19,Wunderground v.1.15,2013-04-12 09:47:00,
2013-04-12 05:52:00,57.2,53.0,29.70,NNW,345,7.0,12.0,86,0.00,,,0.19,Wunderground v.1.15,2013-04-12 09:52:00,
2013-04-12 05:57:00,57.1,53.0,29.71,NNE,23,6.0,10.0,86,0.00,,,0.19,Wunderground v.1.15,2013-04-12 09:57:00,
2013-04-12 06:07:00,56.9,53.1,29.72,NE,37,5.0,6.0,87,0.00,,,0.19,Wunderground v.1.15,2013-04-12 10:07:00,
2013-04-12 06:12:00,56.8,53.0,29.72,NE,34,5.0,6.0,87,0.00,,,0.19,Wunderground v.1.15,2013-04-12 10:12:00,
2013-04-12 06:17:00,56.5,52.0,29.72,NW,312,7.0,7.0,85,0.00,,,0.19,Wunderground v.1.15,2013-04-12 10:17:00,
2013-04-12 06:22:00,56.2,51.4,29.73,NNE,19,10.0,10.0,84,0.00,,,0.19,Wunderground v.1.15,2013-04-12 10:22:00,
2013-04-12 06:32:00,55.8,51.0,29.74,NNW,335,7.0,10.0,84,0.00,,,0.19,Wunderground v.1.15,2013-04-12 10:32:00,
2013-04-12 06:37:00,55.6,51.2,29.74,North,5,6.0,6.0,85,0.00,,,0.19,Wunderground v.1.15,2013-04-12 10:37:00,
2013-04-12 06:42:00,55.5,51.4,29.75,North,9,5.0,6.0,86,0.00,,,0.19,Wunderground v.1.15,2013-04-12 10:42:00,
2013-04-12 06:47:00,55.4,51.0,29.75,NNE,15,5.0,14.0,85,0.00,,,0.19,Wunderground v.1.15,2013-04-12 10:47:00,
2013-04-12 06:52:00,55.1,50.7,29.75,NNE,16,7.0,14.0,85,0.00,,,0.19,Wunderground v.1.15,2013-04-12 10:52:00,
2013-04-12 06:57:00,54.9,50.2,29.75,NNW,330,8.0,14.0,84,0.00,,,0.19,Wunderground v.1.15,2013-04-12 10:57:00,
2013-04-12 07:07:00,54.5,50.1,29.76,North,358,6.0,14.0,85,0.00,,,0.19,Wunderground v.1.15,2013-04-12 11:07:00,
2013-04-12 07:12:00,54.2,49.8,29.76,NNE,20,7.0,14.0,85,0.00,,,0.19,Wunderground v.1.15,2013-04-12 11:12:00,
2013-04-12 07:17:00,54.0,49.6,29.77,North,1,7.0,14.0,85,0.00,,,0.19,Wunderground v.1.15,2013-04-12 11:17:00,
2013-04-12 07:22:00,53.8,49.7,29.77,NE,54,7.0,14.0,86,0.00,,,0.19,Wunderground v.1.15,2013-04-12 11:22:00,
2013-04-12 07:27:00,53.5,49.4,29.77,NNE,20,8.0,8.0,86,0.00,,,0.19,Wunderground v.1.15,2013-04-12 11:27:00,
2013-04-12 07:37:00,52.9,48.8,29.78,North,9,8.0,14.0,86,0.00,,,0.19,Wunderground v.1.15,2013-04-12 11:37:00,
2013-04-12 07:42:00,52.7,48.3,29.79,North,5,8.0,14.0,85,0.00,,,0.19,Wunderground v.1.15,2013-04-12 11:42:00,
2013-04-12 07:47:00,52.6,48.2,29.79,NE,45,7.0,14.0,85,0.00,,,0.19,Wunderground v.1.15,2013-04-12 11:47:00,
2013-04-12 07:52:00,52.5,47.8,29.80,NE,43,7.0,14.0,84,0.00,,,0.19,Wunderground v.1.15,2013-04-12 11:52:00,
2013-04-12 07:57:00,52.4,47.7,29.80,NE,34,7.0,14.0,84,0.00,,,0.19,Wunderground v.1.15,2013-04-12 11:57:00,
2013-04-12 08:02:00,52.2,47.5,29.80,NE,44,8.0,14.0,84,0.00,,,0.19,Wunderground v.1.15,2013-04-12 12:02:00,
2013-04-12 08:07:00,52.1,47.7,29.80,NE,53,8.0,14.0,85,0.00,,,0.19,Wunderground v.1.15,2013-04-12 12:07:00,
2013-04-12 08:12:00,52.0,47.6,29.81,NNE,23,7.0,14.0,85,0.00,,,0.19,Wunderground v.1.15,2013-04-12 12:12:00,
2013-04-12 08:17:00,51.7,47.0,29.80,North,4,8.0,14.0,84,0.00,,,0.19,Wunderground v.1.15,2013-04-12 12:17:00,
2013-04-12 08:22:00,51.6,46.9,29.81,NNE,18,10.0,14.0,84,0.00,,,0.19,Wunderground v.1.15,2013-04-12 12:22:00,
2013-04-12 08:27:00,51.7,47.0,29.81,NNE,16,11.0,11.0,84,0.00,,,0.19,Wunderground v.1.15,2013-04-12 12:27:00,
2013-04-12 08:32:00,51.9,47.2,29.81,NNE,33,10.0,12.0,84,0.00,,,0.19,Wunderground v.1.15,2013-04-12 12:32:00,
2013-04-12 08:42:00,52.1,46.8,29.82,NE,53,8.0,14.0,82,0.00,,,0.19,Wunderground v.1.15,2013-04-12 12:42:00,
2013-04-12 08:47:00,52.0,46.0,29.82,NE,47,9.0,9.0,80,0.00,,,0.19,Wunderground v.1.15,2013-04-12 12:47:00,
2013-04-12 08:52:00,51.8,45.5,29.83,NE,37,9.0,14.0,79,0.00,,,0.19,Wunderground v.1.15,2013-04-12 12:52:00,
2013-04-12 08:57:00,51.8,45.8,29.83,NNE,14,7.0,7.0,80,0.00,,,0.19,Wunderground v.1.15,2013-04-12 12:57:00,
2013-04-12 09:07:00,51.8,44.8,29.83,NE,41,5.0,14.0,77,0.00,,,0.19,Wunderground v.1.15,2013-04-12 13:07:00,
2013-04-12 09:17:00,52.1,45.1,29.83,NW,317,6.0,6.0,77,0.00,,,0.19,Wunderground v.1.15,2013-04-12 13:17:00,
2013-04-12 09:22:00,52.4,44.7,29.83,NNE,29,6.0,14.0,75,0.00,,,0.19,Wunderground v.1.15,2013-04-12 13:22:00,
2013-04-12 09:27:00,52.8,44.4,29.83,NNE,13,6.0,14.0,73,0.00,,,0.19,Wunderground v.1.15,2013-04-12 13:27:00,
2013-04-12 09:32:00,52.7,43.9,29.83,NNE,27,6.0,14.0,72,0.00,,,0.19,Wunderground v.1.15,2013-04-12 13:32:00,
2013-04-12 09:37:00,52.8,44.4,29.83,NE,49,7.0,14.0,73,0.00,,,0.19,Wunderground v.1.15,2013-04-12 13:37:00,
2013-04-12 09:42:00,53.0,44.6,29.83,NE,37,9.0,14.0,73,0.00,,,0.19,Wunderground v.1.15,2013-04-12 13:42:00,
2013-04-12 09:52:00,53.2,44.4,29.84,NE,34,7.0,14.0,72,0.00,,,0.19,Wunderground v.1.15,2013-04-12 13:52:00,
2013-04-12 09:57:00,53.2,44.4,29.84,NE,49,6.0,14.0,72,0.00,,,0.19,Wunderground v.1.15,2013-04-12 13:57:00,
2013-04-12 10:02:00,53.1,44.3,29.84,NNE,23,7.0,14.0,72,0.00,,,0.19,Wunderground v.1.15,2013-04-12 14:02:00,
2013-04-12 10:07:00,53.4,45.0,29.84,NW,316,7.0,7.0,73,0.00,,,0.19,Wunderground v.1.15,2013-04-12 14:07:00,
2013-04-12 10:12:00,53.5,44.3,29.84,North,358,7.0,14.0,71,0.00,,,0.19,Wunderground v.1.15,2013-04-12 14:12:00,
2013-04-12 10:15:00,53.7,44.9,29.84,NNE,23,6.0,-999.0,72,0.00,,,0.19,Wunderground v.1.15,2013-04-12 14:15:00,
2013-04-12 10:17:00,53.7,45.2,29.84,NE,53,5.0,14.0,73,0.00,,,0.19,Wunderground v.1.15,2013-04-12 14:17:00,
2013-04-12 10:20:00,53.7,44.9,29.84,NNE,23,6.0,-999.0,72,0.00,,,0.19,Wunderground v.1.15,2013-04-12 14:20:00,
2013-04-12 10:25:00,53.3,44.1,29.84,NNE,23,6.0,-999.0,71,0.00,,,0.19,Wunderground v.1.15,2013-04-12 14:25:00,
2013-04-12 10:27:00,53.4,44.2,29.84,North,350,7.0,7.0,71,0.00,,,0.19,Wunderground v.1.15,2013-04-12 14:27:00,
2013-04-12 10:30:00,53.3,44.1,29.84,NNE,23,6.0,-999.0,71,0.00,,,0.19,Wunderground v.1.15,2013-04-12 14:30:00,
2013-04-12 10:32:00,53.3,44.1,29.84,NW,316,5.0,14.0,71,0.00,,,0.19,Wunderground v.1.15,2013-04-12 14:32:00,
2013-04-12 10:35:00,53.3,44.1,29.84,NNE,23,6.0,-999.0,71,0.00,,,0.19,Wunderground v.1.15,2013-04-12 14:35:00,
2013-04-12 10:40:00,54.0,44.4,29.84,NNW,338,3.0,-999.0,70,0.00,,,0.19,Wunderground v.1.15,2013-04-12 14:40:00,
2013-04-12 10:42:00,53.8,43.9,29.84,ENE,72,4.0,14.0,69,0.00,,,0.19,Wunderground v.1.15,2013-04-12 14:42:00,
2013-04-12 10:45:00,54.0,44.4,29.84,NNW,338,3.0,-999.0,70,0.00,,,0.19,Wunderground v.1.15,2013-04-12 14:45:00,
2013-04-12 10:47:00,54.2,44.2,29.84,ENE,58,3.0,14.0,69,0.00,,,0.19,Wunderground v.1.15,2013-04-12 14:47:00,
2013-04-12 10:50:00,54.0,44.4,29.84,NNW,338,3.0,-999.0,70,0.00,,,0.19,Wunderground v.1.15,2013-04-12 14:50:00,
2013-04-12 10:52:00,54.3,44.7,29.85,NE,37,4.0,14.0,70,0.00,,,0.19,Wunderground v.1.15,2013-04-12 14:52:00,
2013-04-12 10:55:00,55.1,45.1,29.85,ENE,68,4.0,-999.0,69,0.00,,,0.19,Wunderground v.1.15,2013-04-12 14:55:00,
2013-04-12 11:00:00,55.1,45.1,29.85,ENE,68,4.0,-999.0,69,0.00,,,0.19,Wunderground v.1.15,2013-04-12 15:00:00,
2013-04-12 11:02:00,55.3,45.3,29.85,NNW,346,4.0,5.0,69,0.00,,,0.19,Wunderground v.1.15,2013-04-12 15:02:00,
2013-04-12 11:05:00,55.1,45.1,29.85,ENE,68,4.0,-999.0,69,0.00,,,0.19,Wunderground v.1.15,2013-04-12 15:05:00,
2013-04-12 11:07:00,55.2,43.6,29.85,West,278,4.0,4.0,65,0.00,,,0.19,Wunderground v.1.15,2013-04-12 15:07:00,
2013-04-12 11:10:00,55.9,45.1,29.85,NNE,23,3.0,-999.0,67,0.00,,,0.19,Wunderground v.1.15,2013-04-12 15:10:00,
2013-04-12 11:12:00,55.7,44.9,29.86,ENE,65,3.0,14.0,67,0.00,,,0.19,Wunderground v.1.15,2013-04-12 15:12:00,
2013-04-12 11:15:00,55.9,45.1,29.85,NNE,23,3.0,-999.0,67,0.00,,,0.19,Wunderground v.1.15,2013-04-12 15:15:00,
2013-04-12 11:17:00,56.3,46.3,29.85,North,355,2.0,14.0,69,0.00,,,0.19,Wunderground v.1.15,2013-04-12 15:17:00,
2013-04-12 11:20:00,55.9,45.1,29.85,NNE,23,3.0,-999.0,67,0.00,,,0.19,Wunderground v.1.15,2013-04-12 15:20:00,
2013-04-12 11:22:00,56.8,46.3,29.86,NNW,341,3.0,14.0,68,0.00,,,0.19,Wunderground v.1.15,2013-04-12 15:22:00,
2013-04-12 11:25:00,56.7,45.1,29.86,NE,45,4.0,-999.0,65,0.00,,,0.19,Wunderground v.1.15,2013-04-12 15:25:00,
2013-04-12 11:30:00,56.7,45.1,29.86,NE,45,4.0,-999.0,65,0.00,,,0.19,Wunderground v.1.15,2013-04-12 15:30:00,
2013-04-12 11:32:00,56.7,43.8,29.86,North,352,5.0,14.0,62,0.00,,,0.19,Wunderground v.1.15,2013-04-12 15:32:00,
2013-04-12 11:35:00,56.7,45.1,29.86,NE,45,4.0,-999.0,65,0.00,,,0.19,Wunderground v.1.15,2013-04-12 15:35:00,
2013-04-12 11:37:00,56.8,42.6,29.86,NE,53,5.0,14.0,59,0.00,,,0.19,Wunderground v.1.15,2013-04-12 15:37:00,
2013-04-12 11:40:00,56.0,42.7,29.86,NE,45,7.0,-999.0,61,0.00,,,0.19,Wunderground v.1.15,2013-04-12 15:40:00,
2013-04-12 11:42:00,56.4,43.1,29.86,NE,37,7.0,14.0,61,0.00,,,0.19,Wunderground v.1.15,2013-04-12 15:42:00,
2013-04-12 11:45:00,56.0,42.7,29.86,NE,45,7.0,-999.0,61,0.00,,,0.19,Wunderground v.1.15,2013-04-12 15:45:00,
2013-04-12 11:47:00,56.0,43.6,29.86,ENE,60,8.0,8.0,63,0.00,,,0.19,Wunderground v.1.15,2013-04-12 15:47:00,
2013-04-12 11:50:00,56.0,42.7,29.86,NE,45,7.0,-999.0,61,0.00,,,0.19,Wunderground v.1.15,2013-04-12 15:50:00,
2013-04-12 11:52:00,56.6,44.1,29.87,NNE,21,7.0,11.0,63,0.00,,,0.19,Wunderground v.1.15,2013-04-12 15:52:00,
2013-04-12 11:55:00,56.8,43.9,29.87,NE,45,6.0,-999.0,62,0.00,,,0.19,Wunderground v.1.15,2013-04-12 15:55:00,
2013-04-12 11:57:00,56.7,44.2,29.86,NNE,19,7.0,7.0,63,0.00,,,0.19,Wunderground v.1.15,2013-04-12 15:57:00,
2013-04-12 12:00:00,56.8,43.9,29.87,NE,45,6.0,-999.0,62,0.00,,,0.19,Wunderground v.1.15,2013-04-12 16:00:00,
2013-04-12 12:05:00,56.8,43.9,29.87,NE,45,6.0,-999.0,62,0.00,,,0.19,Wunderground v.1.15,2013-04-12 16:05:00,
2013-04-12 12:07:00,56.9,44.0,29.87,North,358,6.0,14.0,62,0.00,,,0.19,Wunderground v.1.15,2013-04-12 16:07:00,
2013-04-12 12:10:00,56.9,43.2,29.87,NNE,23,6.0,-999.0,60,0.00,,,0.19,Wunderground v.1.15,2013-04-12 16:10:00,
2013-04-12 12:12:00,57.0,43.7,29.87,NNE,26,6.0,14.0,61,0.00,,,0.19,Wunderground v.1.15,2013-04-12 16:12:00,
2013-04-12 12:15:00,56.9,43.2,29.87,NNE,23,6.0,-999.0,60,0.00,,,0.19,Wunderground v.1.15,2013-04-12 16:15:00,
2013-04-12 12:17:00,56.9,43.6,29.87,ENE,60,6.0,6.0,61,0.00,,,0.19,Wunderground v.1.15,2013-04-12 16:17:00,
2013-04-12 12:20:00,56.9,43.2,29.87,NNE,23,6.0,-999.0,60,0.00,,,0.19,Wunderground v.1.15,2013-04-12 16:20:00,
2013-04-12 12:22:00,57.1,42.5,29.87,NE,50,7.0,7.0,58,0.00,,,0.19,Wunderground v.1.15,2013-04-12 16:22:00,
2013-04-12 12:25:00,57.4,43.6,29.87,NE,45,6.0,-999.0,60,0.00,,,0.19,Wunderground v.1.15,2013-04-12 16:25:00,
2013-04-12 12:27:00,57.3,42.6,29.87,NE,37,6.0,14.0,58,0.00,,,0.19,Wunderground v.1.15,2013-04-12 16:27:00,
2013-04-12 12:30:00,57.4,43.6,29.87,NE,45,6.0,-999.0,60,0.00,,,0.19,Wunderground v.1.15,2013-04-12 16:30:00,
2013-04-12 12:35:00,57.4,43.6,29.87,NE,45,6.0,-999.0,60,0.00,,,0.19,Wunderground v.1.15,2013-04-12 16:35:00,
2013-04-12 12:37:00,57.7,42.6,29.86,WNW,283,4.0,4.0,57,0.00,,,0.19,Wunderground v.1.15,2013-04-12 16:37:00,
2013-04-12 12:40:00,57.9,43.2,29.86,NE,45,4.0,-999.0,58,0.00,,,0.19,Wunderground v.1.15,2013-04-12 16:40:00,
2013-04-12 12:42:00,57.8,44.9,29.86,NW,326,5.0,5.0,62,0.00,,,0.19,Wunderground v.1.15,2013-04-12 16:42:00,
2013-04-12 12:45:00,57.9,43.2,29.86,NE,45,4.0,-999.0,58,0.00,,,0.19,Wunderground v.1.15,2013-04-12 16:45:00,
2013-04-12 12:47:00,58.0,43.7,29.86,East,86,4.0,4.0,59,0.00,,,0.19,Wunderground v.1.15,2013-04-12 16:47:00,
2013-04-12 12:50:00,57.9,43.2,29.86,NE,45,4.0,-999.0,58,0.00,,,0.19,Wunderground v.1.15,2013-04-12 16:50:00,
2013-04-12 12:52:00,58.6,43.9,29.86,NE,51,3.0,14.0,58,0.00,,,0.19,Wunderground v.1.15,2013-04-12 16:52:00,
2013-04-12 12:55:00,59.3,43.6,29.86,ENE,68,3.0,-999.0,56,0.00,,,0.19,Wunderground v.1.15,2013-04-12 16:55:00,
2013-04-12 12:57:00,59.2,43.5,29.86,ENE,75,3.0,14.0,56,0.00,,,0.19,Wunderground v.1.15,2013-04-12 16:57:00,
2013-04-12 13:00:00,59.3,43.6,29.86,ENE,68,3.0,-999.0,56,0.00,,,0.19,Wunderground v.1.15,2013-04-12 17:00:00,
2013-04-12 13:02:00,59.3,44.5,29.86,ESE,103,3.0,14.0,58,0.00,,,0.19,Wunderground v.1.15,2013-04-12 17:02:00,
2013-04-12 13:05:00,59.3,43.6,29.86,ENE,68,3.0,-999.0,56,0.00,,,0.19,Wunderground v.1.15,2013-04-12 17:05:00,
2013-04-12 13:10:00,59.1,43.4,29.85,ENE,68,5.0,-999.0,56,0.00,,,0.19,Wunderground v.1.15,2013-04-12 17:10:00,
2013-04-12 13:12:00,59.2,43.0,29.86,NNE,29,5.0,14.0,55,0.00,,,0.19,Wunderground v.1.15,2013-04-12 17:12:00,
2013-04-12 13:15:00,59.1,43.4,29.85,ENE,68,5.0,-999.0,56,0.00,,,0.19,Wunderground v.1.15,2013-04-12 17:15:00,
2013-04-12 13:17:00,59.3,44.5,29.85,NE,49,7.0,14.0,58,0.00,,,0.19,Wunderground v.1.15,2013-04-12 17:17:00,
2013-04-12 13:20:00,59.1,43.4,29.85,ENE,68,5.0,-999.0,56,0.00,,,0.19,Wunderground v.1.15,2013-04-12 17:20:00,
2013-04-12 13:22:00,58.8,43.1,29.85,NNE,13,8.0,14.0,56,0.00,,,0.19,Wunderground v.1.15,2013-04-12 17:22:00,
2013-04-12 13:25:00,59.2,45.8,29.85,NE,45,7.0,-999.0,61,0.00,,,0.19,Wunderground v.1.15,2013-04-12 17:25:00,
2013-04-12 13:27:00,58.9,42.8,29.85,ENE,63,7.0,7.0,55,0.00,,,0.19,Wunderground v.1.15,2013-04-12 17:27:00,
2013-04-12 13:30:00,59.2,45.8,29.85,NE,45,7.0,-999.0,61,0.00,,,0.19,Wunderground v.1.15,2013-04-12 17:30:00,
2013-04-12 13:32:00,59.4,43.2,29.85,SSW,209,5.0,14.0,55,0.00,,,0.19,Wunderground v.1.15,2013-04-12 17:32:00,
2013-04-12 13:35:00,59.2,45.8,29.85,NE,45,7.0,-999.0,61,0.00,,,0.19,Wunderground v.1.15,2013-04-12 17:35:00,
2013-04-12 13:40:00,59.7,41.5,29.85,NE,45,3.0,-999.0,51,0.00,,,0.19,Wunderground v.1.15,2013-04-12 17:40:00,
2013-04-12 13:42:00,59.7,42.5,29.85,NNE,29,2.0,5.0,53,0.00,,,0.19,Wunderground v.1.15,2013-04-12 17:42:00,
2013-04-12 13:45:00,59.7,41.5,29.85,NE,45,3.0,-999.0,51,0.00,,,0.19,Wunderground v.1.15,2013-04-12 17:45:00,
2013-04-12 13:50:00,59.7,41.5,29.85,NE,45,3.0,-999.0,51,0.00,,,0.19,Wunderground v.1.15,2013-04-12 17:50:00,
2013-04-12 13:52:00,60.2,42.5,29.85,North,353,5.0,5.0,52,0.00,,,0.19,Wunderground v.1.15,2013-04-12 17:52:00,
2013-04-12 13:55:00,60.5,42.8,29.85,NE,45,5.0,-999.0,52,0.00,,,0.19,Wunderground v.1.15,2013-04-12 17:55:00,
2013-04-12 14:00:00,60.5,42.8,29.85,NE,45,5.0,-999.0,52,0.00,,,0.19,Wunderground v.1.15,2013-04-12 18:00:00,
2013-04-12 14:02:00,60.7,43.5,29.85,SSW,211,4.0,14.0,53,0.00,,,0.19,Wunderground v.1.15,2013-04-12 18:02:00,
2013-04-12 14:05:00,60.5,42.8,29.85,NE,45,5.0,-999.0,52,0.00,,,0.19,Wunderground v.1.15,2013-04-12 18:05:00,
2013-04-12 14:07:00,61.3,44.0,29.85,NW,315,3.0,3.0,53,0.00,,,0.19,Wunderground v.1.15,2013-04-12 18:07:00,
2013-04-12 14:10:00,61.4,44.1,29.85,NNW,338,4.0,-999.0,53,0.00,,,0.19,Wunderground v.1.15,2013-04-12 18:10:00,
2013-04-12 14:17:00,61.6,43.3,29.85,NNW,341,6.0,6.0,51,0.00,,,0.19,Wunderground v.1.15,2013-04-12 18:17:00,
2013-04-12 14:22:00,61.9,43.0,29.85,NW,312,6.0,14.0,50,0.00,,,0.19,Wunderground v.1.15,2013-04-12 18:22:00,
2013-04-12 14:27:00,61.7,41.3,29.85,NW,311,6.0,6.0,47,0.00,,,0.19,Wunderground v.1.15,2013-04-12 18:27:00,
2013-04-12 15:27:00,63.6,43.5,29.83,NW,316,5.0,14.0,48,0.00,,,0.19,Wunderground v.1.15,2013-04-12 19:27:00,
2013-04-12 15:32:00,63.9,41.0,29.83,SSW,198,6.0,14.0,43,0.00,,,0.19,Wunderground v.1.15,2013-04-12 19:32:00,
2013-04-12 15:37:00,64.2,41.8,29.83,NNE,13,5.0,14.0,44,0.00,,,0.19,Wunderground v.1.15,2013-04-12 19:37:00,
2013-04-12 15:42:00,63.7,41.4,29.83,NNE,30,6.0,14.0,44,0.00,,,0.19,Wunderground v.1.15,2013-04-12 19:42:00,
2013-04-12 15:47:00,63.9,41.5,29.83,WNW,286,7.0,7.0,44,0.00,,,0.19,Wunderground v.1.15,2013-04-12 19:47:00,
2013-04-12 15:52:00,64.1,42.3,29.83,ENE,57,5.0,14.0,45,0.00,,,0.19,Wunderground v.1.15,2013-04-12 19:52:00,
2013-04-12 15:57:00,64.5,41.5,29.83,West,262,3.0,14.0,43,0.00,,,0.19,Wunderground v.1.15,2013-04-12 19:57:00,
2013-04-12 16:02:00,64.7,40.4,29.83,WSW,245,5.0,14.0,41,0.00,,,0.19,Wunderground v.1.15,2013-04-12 20:02:00,
2013-04-12 16:07:00,64.8,42.9,29.83,NW,308,8.0,14.0,45,0.00,,,0.19,Wunderground v.1.15,2013-04-12 20:07:00,
2013-04-12 16:12:00,64.5,40.3,29.83,NW,323,8.0,14.0,41,0.00,,,0.19,Wunderground v.1.15,2013-04-12 20:12:00,
2013-04-12 16:17:00,64.5,40.3,29.82,NNW,339,6.0,6.0,41,0.00,,,0.19,Wunderground v.1.15,2013-04-12 20:17:00,
2013-04-12 16:22:00,64.9,40.6,29.82,WSW,243,4.0,14.0,41,0.00,,,0.19,Wunderground v.1.15,2013-04-12 20:22:00,
2013-04-12 16:27:00,65.5,42.4,29.82,North,11,3.0,14.0,43,0.00,,,0.19,Wunderground v.1.15,2013-04-12 20:27:00,
2013-04-12 16:32:00,65.4,40.4,29.82,NW,315,4.0,14.0,40,0.00,,,0.19,Wunderground v.1.15,2013-04-12 20:32:00,
2013-04-12 16:42:00,65.8,39.5,29.82,WNW,294,6.0,14.0,38,0.00,,,0.19,Wunderground v.1.15,2013-04-12 20:42:00,
2013-04-12 16:52:00,66.0,41.6,29.82,NNE,21,6.0,10.0,41,0.00,,,0.19,Wunderground v.1.15,2013-04-12 20:52:00,
2013-04-12 16:57:00,66.0,39.7,29.82,NNW,330,6.0,6.0,38,0.00,,,0.19,Wunderground v.1.15,2013-04-12 20:57:00,
2013-04-12 17:02:00,66.5,42.7,29.82,NE,46,5.0,16.0,42,0.00,,,0.19,Wunderground v.1.15,2013-04-12 21:02:00,
2013-04-12 17:07:00,66.3,41.2,29.82,North,4,6.0,14.0,40,0.00,,,0.19,Wunderground v.1.15,2013-04-12 21:07:00,
2013-04-12 17:12:00,66.4,40.0,29.82,NNW,334,8.0,14.0,38,0.00,,,0.19,Wunderground v.1.15,2013-04-12 21:12:00,
2013-04-12 17:17:00,66.4,41.3,29.82,NW,306,6.0,6.0,40,0.00,,,0.19,Wunderground v.1.15,2013-04-12 21:17:00,
2013-04-12 17:22:00,66.2,39.1,29.82,West,271,6.0,14.0,37,0.00,,,0.19,Wunderground v.1.15,2013-04-12 21:22:00,
2013-04-12 17:27:00,66.3,40.6,29.83,North,11,5.0,14.0,39,0.00,,,0.19,Wunderground v.1.15,2013-04-12 21:27:00,
2013-04-12 17:32:00,66.2,41.2,29.83,North,9,7.0,14.0,40,0.00,,,0.19,Wunderground v.1.15,2013-04-12 21:32:00,
2013-04-12 17:37:00,66.3,40.6,29.83,NNE,23,8.0,14.0,39,0.00,,,0.19,Wunderground v.1.15,2013-04-12 21:37:00,
2013-04-12 17:47:00,66.5,39.4,29.83,ENE,57,8.0,8.0,37,0.00,,,0.19,Wunderground v.1.15,2013-04-12 21:47:00,
2013-04-12 17:52:00,66.3,40.6,29.83,NE,44,7.0,14.0,39,0.00,,,0.19,Wunderground v.1.15,2013-04-12 21:52:00,
2013-04-12 17:57:00,66.8,42.3,29.83,NNE,20,7.0,14.0,41,0.00,,,0.19,Wunderground v.1.15,2013-04-12 21:57:00,
2013-04-12 18:02:00,66.6,40.2,29.83,NNE,12,5.0,14.0,38,0.00,,,0.19,Wunderground v.1.15,2013-04-12 22:02:00,
2013-04-12 18:07:00,66.5,40.1,29.83,NNE,32,6.0,14.0,38,0.00,,,0.19,Wunderground v.1.15,2013-04-12 22:07:00,
2013-04-12 18:17:00,66.6,40.2,29.83,NNW,329,5.0,5.0,38,0.00,,,0.19,Wunderground v.1.15,2013-04-12 22:17:00,
2013-04-12 18:22:00,66.6,40.2,29.83,NW,304,5.0,14.0,38,0.00,,,0.19,Wunderground v.1.15,2013-04-12 22:22:00,
2013-04-12 18:27:00,66.3,41.2,29.83,NW,326,5.0,5.0,40,0.00,,,0.19,Wunderground v.1.15,2013-04-12 22:27:00,
2013-04-12 18:32:00,66.3,39.9,29.83,WNW,288,6.0,6.0,38,0.00,,,0.19,Wunderground v.1.15,2013-04-12 22:32:00,
2013-04-12 18:37:00,66.0,39.7,29.83,NNE,25,7.0,14.0,38,0.00,,,0.19,Wunderground v.1.15,2013-04-12 22:37:00,
2013-04-12 18:42:00,66.0,40.3,29.83,NE,44,7.0,14.0,39,0.00,,,0.19,Wunderground v.1.15,2013-04-12 22:42:00,
2013-04-12 18:52:00,65.3,41.0,29.84,NE,56,9.0,14.0,41,0.00,,,0.19,Wunderground v.1.15,2013-04-12 22:52:00,
2013-04-12 18:57:00,65.2,41.5,29.83,NE,41,8.0,8.0,42,0.00,,,0.19,Wunderground v.1.15,2013-04-12 22:57:00,
2013-04-12 19:02:00,65.0,40.7,29.84,NE,53,7.0,9.0,41,0.00,,,0.19,Wunderground v.1.15,2013-04-12 23:02:00,
2013-04-12 19:07:00,64.9,41.9,29.84,North,11,7.0,14.0,43,0.00,,,0.19,Wunderground v.1.15,2013-04-12 23:07:00,
2013-04-12 19:12:00,64.8,41.2,29.84,NNW,340,8.0,14.0,42,0.00,,,0.19,Wunderground v.1.15,2013-04-12 23:12:00,
2013-04-12 19:22:00,64.6,42.2,29.84,NE,44,7.0,14.0,44,0.00,,,0.19,Wunderground v.1.15,2013-04-12 23:22:00,
2013-04-12 19:27:00,64.4,40.8,29.84,NE,44,6.0,14.0,42,0.00,,,0.19,Wunderground v.1.15,2013-04-12 23:27:00,
2013-04-12 19:32:00,64.1,41.1,29.84,ENE,58,6.0,14.0,43,0.00,,,0.19,Wunderground v.1.15,2013-04-12 23:32:00,
2013-04-12 19:37:00,63.9,41.0,29.84,NE,43,6.0,14.0,43,0.00,,,0.19,Wunderground v.1.15,2013-04-12 23:37:00,
2013-04-12 19:42:00,63.6,41.3,29.84,NNE,32,6.0,14.0,44,0.00,,,0.19,Wunderground v.1.15,2013-04-12 23:42:00,
2013-04-12 19:47:00,63.4,42.2,29.84,NNE,23,5.0,5.0,46,0.00,,,0.19,Wunderground v.1.15,2013-04-12 23:47:00,
2013-04-12 19:52:00,63.3,41.6,29.84,NNE,30,4.0,14.0,45,0.00,,,0.19,Wunderground v.1.15,2013-04-12 23:52:00,
2013-04-12 19:57:00,62.8,41.7,29.84,NE,46,4.0,14.0,46,0.00,,,0.19,Wunderground v.1.15,2013-04-12 23:57:00,
2013-04-12 20:02:00,62.4,42.4,29.84,NE,44,4.0,14.0,48,0.00,,,0.19,Wunderground v.1.15,2013-04-13 00:02:00,
2013-04-12 20:07:00,62.0,42.1,29.85,NE,41,4.0,14.0,48,0.00,,,0.19,Wunderground v.1.15,2013-04-13 00:07:00,
2013-04-12 20:12:00,61.6,43.3,29.85,NE,39,4.0,14.0,51,0.00,,,0.19,Wunderground v.1.15,2013-04-13 00:12:00,
2013-04-12 20:17:00,61.1,44.3,29.85,NE,39,3.0,3.0,54,0.00,,,0.19,Wunderground v.1.15,2013-04-13 00:17:00,
2013-04-12 20:27:00,59.9,43.7,29.86,NE,37,1.0,14.0,55,0.00,,,0.19,Wunderground v.1.15,2013-04-13 00:27:00,
2013-04-12 20:32:00,59.2,44.4,29.86,NE,37,1.0,14.0,58,0.00,,,0.19,Wunderground v.1.15,2013-04-13 00:32:00,
2013-04-12 20:37:00,58.6,46.0,29.86,NE,37,1.0,14.0,63,0.00,,,0.19,Wunderground v.1.15,2013-04-13 00:37:00,
2013-04-12 20:42:00,57.8,45.3,29.86,NE,37,1.0,14.0,63,0.00,,,0.19,Wunderground v.1.15,2013-04-13 00:42:00,
2013-04-12 20:47:00,57.2,46.7,29.86,NW,304,1.0,1.0,68,0.00,,,0.19,Wunderground v.1.15,2013-04-13 00:47:00,
2013-04-12 20:52:00,56.3,47.0,29.87,NW,304,0.0,14.0,71,0.00,,,0.19,Wunderground v.1.15,2013-04-13 00:52:00,
2013-04-12 21:02:00,55.0,46.5,29.87,West,277,0.0,14.0,73,0.00,,,0.19,Wunderground v.1.15,2013-04-13 01:02:00,
2013-04-12 21:07:00,54.4,45.9,29.88,West,277,0.0,14.0,73,0.00,,,0.19,Wunderground v.1.15,2013-04-13 01:07:00,
2013-04-12 21:12:00,53.9,45.4,29.88,West,277,0.0,14.0,73,0.00,,,0.19,Wunderground v.1.15,2013-04-13 01:12:00,
2013-04-12 21:17:00,53.4,45.3,29.88,West,277,0.0,14.0,74,0.00,,,0.19,Wunderground v.1.15,2013-04-13 01:17:00,
2013-04-12 21:22:00,53.3,47.0,29.88,West,277,0.0,14.0,79,0.00,,,0.19,Wunderground v.1.15,2013-04-13 01:22:00,
2013-04-12 21:27:00,52.9,46.2,29.89,West,277,0.0,14.0,78,0.00,,,0.19,Wunderground v.1.15,2013-04-13 01:27:00,
2013-04-12 21:32:00,52.5,46.2,29.89,West,277,0.0,14.0,79,0.00,,,0.19,Wunderground v.1.15,2013-04-13 01:32:00,
2013-04-12 21:42:00,52.0,46.3,29.89,West,277,0.0,14.0,81,0.00,,,0.19,Wunderground v.1.15,2013-04-13 01:42:00,
2013-04-12 21:47:00,51.6,46.0,29.89,West,277,0.0,14.0,81,0.00,,,0.19,Wunderground v.1.15,2013-04-13 01:47:00,
2013-04-12 21:52:00,51.2,45.6,29.89,West,277,0.0,14.0,81,0.00,,,0.19,Wunderground v.1.15,2013-04-13 01:52:00,
2013-04-12 21:57:00,50.6,45.3,29.90,West,277,0.0,14.0,82,0.00,,,0.19,Wunderground v.1.15,2013-04-13 01:57:00,
2013-04-12 22:07:00,50.4,46.1,29.90,West,277,0.0,14.0,85,0.00,,,0.19,Wunderground v.1.15,2013-04-13 02:07:00,
2013-04-12 22:12:00,50.3,46.0,29.90,West,277,0.0,14.0,85,0.00,,,0.19,Wunderground v.1.15,2013-04-13 02:12:00,
2013-04-12 22:17:00,50.2,45.9,29.90,West,277,0.0,14.0,85,0.00,,,0.19,Wunderground v.1.15,2013-04-13 02:17:00,
2013-04-12 22:22:00,50.0,45.7,29.90,West,277,0.0,14.0,85,0.00,,,0.19,Wunderground v.1.15,2013-04-13 02:22:00,
2013-04-12 22:27:00,49.8,45.5,29.91,West,277,0.0,14.0,85,0.00,,,0.19,Wunderground v.1.15,2013-04-13 02:27:00,
2013-04-12 22:37:00,49.6,45.9,29.91,West,277,0.0,14.0,87,0.00,,,0.19,Wunderground v.1.15,2013-04-13 02:37:00,
2013-04-12 22:42:00,49.4,46.0,29.91,West,277,0.0,14.0,88,0.00,,,0.19,Wunderground v.1.15,2013-04-13 02:42:00,
2013-04-12 22:47:00,49.1,45.7,29.92,West,277,0.0,14.0,88,0.00,,,0.19,Wunderground v.1.15,2013-04-13 02:47:00,
2013-04-12 22:52:00,48.9,45.5,29.92,West,277,0.0,14.0,88,0.00,,,0.19,Wunderground v.1.15,2013-04-13 02:52:00,
2013-04-12 22:57:00,48.8,45.7,29.92,West,277,0.0,14.0,89,0.00,,,0.19,Wunderground v.1.15,2013-04-13 02:57:00,
2013-04-12 23:02:00,48.7,45.6,29.92,West,277,0.0,14.0,89,0.00,,,0.19,Wunderground v.1.15,2013-04-13 03:02:00,
2013-04-12 23:12:00,48.2,45.1,29.93,West,277,0.0,14.0,89,0.00,,,0.19,Wunderground v.1.15,2013-04-13 03:12:00,
2013-04-12 23:17:00,47.9,45.1,29.93,West,277,0.0,14.0,90,0.00,,,0.19,Wunderground v.1.15,2013-04-13 03:17:00,
2013-04-12 23:22:00,47.8,45.0,29.93,West,277,0.0,14.0,90,0.00,,,0.19,Wunderground v.1.15,2013-04-13 03:22:00,
2013-04-12 23:32:00,47.6,44.8,29.93,West,277,0.0,14.0,90,0.00,,,0.19,Wunderground v.1.15,2013-04-13 03:32:00,
2013-04-12 23:37:00,47.5,44.7,29.93,West,277,0.0,14.0,90,0.00,,,0.19,Wunderground v.1.15,2013-04-13 03:37:00,
2013-04-12 23:47:00,47.4,44.6,29.94,West,277,0.0,14.0,90,0.00,,,0.19,Wunderground v.1.15,2013-04-13 03:47:00,
2013-04-12 23:52:00,47.2,44.4,29.94,West,277,0.0,14.0,90,0.00,,,0.19,Wunderground v.1.15,2013-04-13 03:52:00,